Other Public Products
Issued by NWS Grand Forks, ND

Home | Current Version | Previous Version | Graphics & Text | Print | Product List | Glossary Off
Versions: 1 2 3 4 5 6 7 8 9 10 11 12 13 14 15 16 17 18 19 20 21 22 23 24 25 26 27 28 29 30 31 32 33 34 35 36 37 38 39 40 41 42 43 44 45 46 47 48 49 50

000
FPUS83 KFGF 030831
OPUFGF
PRAIRIE TO PINES WEATHER ROUNDUP
NATIONAL WEATHER SERVICE EASTERN NORTH DAKOTA/GRAND FORKS ND
300 AM CDT THU SEP 03 2015

 **SATELLITE DATA USED TO AUGMENT SKY COVER AT AUTOMATED STATIONS**
 *****  WEATHER ACROSS EASTERN NORTH DAKOTA  *****

CITY           SKY/WX    TMP DP  RH WIND       PRES   REMARKS
GRAND FORKS    CLEAR     70  67  90 SE13      29.78F
GRAND FORKS AF MOCLDY    70  68  94 S8        29.78F
GRAND CITY NWS   N/A     70 N/A N/A SE15        N/A
BUXTON         NOT AVBL
DEVILS LAKE    CLOUDY    73  66  78 SE8       29.74F
FARGO          MOCLDY    72  69  90 SE10      29.79F
WAHPETON ARPT  CLOUDY    72  68  88 SE14      29.81F
$$

 *****  WEATHER ACROSS CENTRAL AND WESTERN NORTH DAKOTA  *****

CITY           SKY/WX    TMP DP  RH WIND       PRES   REMARKS
JAMESTOWN      PTCLDY    73  71  93 SE12      29.75F FOG
BISMARCK       PTCLDY    70  69  97 E7        29.70F
MINOT          MOCLDY    71  67  87 SE9       29.67F
MINOT AFB      PTCLDY    66  66 100 SE9       29.66F
GARRISON         N/A     72  67  84 SE12      29.69F
WILLISTON      MOCLDY    67  54  63 CALM      29.64S
DICKINSON      CLEAR     68  59  73 SE10      29.68F
HETTINGER      CLEAR     66  59  78 E7        29.72F
$$

 *****  OTHER OBSERVATIONS NORTHEAST NORTH DAKOTA  *****

CITY           SKY/WX    TMP DP  RH WIND       PRES   REMARKS
WALHALLA       FAIR      68  68 100 MISG      29.76F
LANGDON        PTSUNNY   72  70  94 S15       29.78S FOG
CAVALIER       CLOUDY    72  66  83 S12G17    29.77F
GRAFTON        CLOUDY    70  70 100 SE10      29.79S
CANDO          CLOUDY    72  72 100 SE13      29.75F
FORT TOTTEN    NOT AVBL
ROLLA          CLOUDY    72  72 100 S12       29.76F
RUGBY          FAIR      72  72 100 SE12      29.71F
 ***** THE ABOVE OBSERVATIONS ARE NON NWS ARE NOT QUALITY
        CONTROLLED AND MAY MIS-REPORT RAIN FOR SNOW...
$$

 *****  OTHER OBSERVATIONS SOUTHEAST NORTH DAKOTA *****

CITY           SKY/WX    TMP DP  RH WIND       PRES   REMARKS
COOPERSTOWN    NOT AVBL
VALLEY CITY    FOG       72  72 100 SE14      29.78S VSB 1/2
OAKES            N/A     72  72 100 E12       29.76S FOG
GWINNER        CLOUDY    73  73 100 SE13G18   29.78S
SHEYENNE NWR     N/A     71  70  96 SE13      29.95S
BUFFALO        NOT AVBL
WYNDMERE         N/A     72  70  94 SE9         N/A
 ***** THE ABOVE OBSERVATIONS ARE NON NWS ARE NOT QUALITY
       CONTROLLED AND MAY MIS-REPORT RAIN FOR SNOW...
$$

  *****  WEATHER ACROSS NORTHERN MINNESOTA  *****

CITY           SKY/WX    TMP DP  RH WIND       PRES   REMARKS
FLAG ISLAND    CLEAR     70  64  83 S15       29.87S
WARROAD        CLEAR     68  64  88 SE8       29.87S
ROSEAU         CLEAR     68  63  83 SE8       29.85S
HALLOCK        CLEAR     70  66  88 SE12      29.79S
THF RVR FALLS  CLEAR     64  64 100 SE9       29.84S
HALSTAD        NOT AVBL
FOSSTON        CLEAR     66  63  88 SE8       29.86F
BAUDETTE       CLEAR     64  62  93 SE8       29.89F
WASKISH        CLEAR     61  61 100 CALM      29.90S FOG
CROOKSTON      PTCLDY    70  66  88 SE10      29.82S
$$
  *****  WEATHER ACROSS CENTRAL AND WEST MINNESOTA  *****

CITY           SKY/WX    TMP DP  RH WIND       PRES   REMARKS
BEMIDJI        MOCLDY    64  64  98 SE8       29.90S
PARK RAPIDS    MOCLDY    67  64  90 SE6       29.90F
WADENA         CLOUDY    70  66  88 SE9       29.89S
DETROIT LAKES  CLOUDY    70  68  94 SE12      29.88S FOG
MOORHEAD       PTCLDY    72  70  94 SE10      29.81S FOG
FERGUS FALLS   CLOUDY    72  72 100 SE12      29.83S FOG
ELBOW LAKE     CLOUDY    70  69  97 SE10G17   29.84F FOG
MORRIS MN      CLOUDY    72  70  94 SE12      29.84S FOG
STAPLES        CLOUDY    68  64  88 E6        29.90S
WHEATON        CLOUDY    68  66  94 SE16      29.83F FOG
$$
  *****  WEATHER ELSEWHERE ACROSS MINNESOTA  *****

CITY           SKY/WX    TMP DP  RH WIND       PRES   REMARKS
DULUTH         FOG       62  61  96 E8        29.97S VSB 1/4
INTRNTL FALLS  CLEAR     61  61 100 SE7       29.94S
ELY            MOCLDY    54  52  94 CALM      29.99S
CLOQUET        FOG       61  61 100 E3        29.97S VSB 1/4
BRAINERD       MOCLDY    66  65  96 VRB7      29.92F
HIBBING        FOG       60  59  96 SE3       29.97S VSB 3/4
ALEXANDRIA     CLOUDY    68  66  93 SE13      29.89F
SAINT CLOUD    CLEAR     67  65  93 E6        29.90F
MINNEAPOLIS    PTCLDY    68  66  93 E6        29.89F
$$

  *****  WEATHER ACROSS SOUTH DAKOTA  *****

CITY           SKY/WX    TMP DP  RH WIND       PRES   REMARKS
SIOUX FALLS    CLEAR     71  69  93 SE5       29.83S
BROOKINGS      CLEAR     70  66  88 SE9       29.84F
WATERTOWN      CLEAR     72  69  90 SE12      29.81F
HURON          CLEAR     72  70  93 SE10      29.75F
SISSETON         N/A     72  72 100 S10       29.80F
ABERDEEN       CLEAR     73  70  90 SE9       29.74F
MITCHELL       CLEAR     71  70  96 SE8       29.78S
PIERRE         CLEAR     72  59  63 SE8       29.71S
MOBRIDGE       CLEAR     71  69  93 SE7       29.68F
RAPID CITY     CLEAR     65  46  50 SE3       29.79S
$$

  *****  SOME WEATHER IN NEARBY STATES *****

CITY           SKY/WX    TMP DP  RH WIND       PRES   REMARKS
GLASGOW MT     PTCLDY    71  37  28 NW15      29.72R
GREAT FALLS MT CLOUDY    57  37  47 NE9       29.88R
CHEYENNE WY    MOCLDY    66  43  43 W12       30.07F
SCOTTSBLUFF NE PTCLDY    66  52  60 E6        29.91S
OMAHA NE       CLEAR     77  70  79 S13       29.85F
DES MOINES IA  PTCLDY    75  68  78 S7        29.90S
DAVENPORT IA   PTCLDY    73  68  84 S7        29.94F
CHICAGO IL     PTCLDY    75  69  81 SW5       29.95S
EAU CLAIRE WI  CLOUDY    69  67  93 NE5       29.91S
LA CROSSE WI   CLEAR     73  69  87 CALM      29.89S
$$

  *****  SOME NATIONAL WEATHER *****

CITY           SKY/WX    TMP DP  RH WIND       PRES   REMARKS
LA GUARDIA NY  CLEAR     78  68  71 NW3       29.85S
RALEIGH NC     FOG       70  70 100 CALM      29.96S VSB 1/2
ATLANTA GA     CLOUDY    76  71  85 NW3       29.99F
NEW ORLEANS LA MOCLDY    78  71  79 CALM      29.95F
OKLAHOMA CITY  PTCLDY    70  63  78 S8        29.95F
ALBUQUERQUE NM CLOUDY    69  49  48 E5        30.18F
SALT LAKE CITY MOCLDY    80  37  21 SE23G33   29.87R
LOS ANGELES CA MOCLDY    67  60  78 S5        29.93F
BOISE ID       MOCLDY    62  42  47 W12       29.79R
SEATTLE WA     CLEAR     53  49  86 SE5       29.96F
$$

*** WEATHER ACROSS MANITOBA...SASKATCHEWAN AND ONTARIO ***
                ***ONTARIO***

CITY           SKY/WX    TMP DP  RH WIND       PRES   REMARKS
GERALDTON      CLEAR     55  54  94 CALM      30.02S
THUNDER BAY    CLEAR     50  50 100 W3        30.00S
SIOUX LOOKOUT  PTCLDY    61  59  94 S6        29.96S
TORONTO        MOCLDY    73  70  88 NW9       29.93R
BIG TROUT LK   MOCLDY    64  59  82 S5        29.81
PICKLE LAKE    NOT AVBL
DRYDEN         CLEAR     64  61  88 S10       29.94F
KENORA         CLEAR     66  64  94 S10       29.91R
$$
                *** MANITOBA***

CITY           SKY/WX    TMP DP  RH WIND       PRES   REMARKS
BRANDON          N/A     70  68  94 SE6       29.71S
DAUPHIN        CLEAR     75  68  78 VRB3      29.65S
ISLAND LAKE    CLOUDY    66  64  94 SE2       29.77S
PILOT MOUND      N/A     70  66  88 S12         N/A
THE PAS        MOCLDY    63  57  82 SE10      29.63F
THOMPSON       MOCLDY    59  55  88 NE6       29.68
WINNIPEG       CLEAR     72  66  83 S13G22    29.78S
LYNN LAKE      CLOUDY    55  52  88 E6        29.71F
CHURCHILL      MOCLDY    46  46 100 E7        29.79F
$$
                ***SASKATCHEWAN***

CITY           SKY/WX    TMP DP  RH WIND       PRES   REMARKS
ESTEVAN        MOCLDY    70  63  78 W8        29.67R
KINDERSLEY     CLOUDY    48  41  76 W5        29.82R
LLOYDMINSTER   CLEAR     48  45  87 W14       29.75S
PRINCE ALBERT  MOCLDY    55  54  94 SW2       29.64
REGINA         MOCLDY    66  48  52 N14G21    29.71S
YORKTON        PTCLDY    57  55  94 VRB2      29.68F


USA.gov is the U.S. government's official web portal to all federal, state and local government web resources and services.